Time,TemperatureF,DewpointF,PressureIn,WindDirection,WindDirectionDegrees,WindSpeedMPH,WindSpeedGustMPH,Humidity,HourlyPrecipIn,Conditions,Clouds,dailyrainin,SoftwareType,DateUTC
2013-05-18 00:01:00,72.7,67.6,30.11,ESE,115,2.0,4.0,84,0.00,,CLR,0.00,VWS V14.01,2013-05-18 04:01:00,
2013-05-18 00:02:00,72.7,67.6,30.11,ESE,115,0.0,4.0,84,0.00,,CLR,0.00,VWS V14.01,2013-05-18 04:02:00,
2013-05-18 00:04:00,72.6,67.5,30.10,ENE,72,6.0,6.0,84,0.00,,CLR,0.00,VWS V14.01,2013-05-18 04:04:00,
2013-05-18 00:09:00,72.5,67.4,30.11,ESE,103,0.0,0.0,84,0.00,,CLR,0.00,VWS V14.01,2013-05-18 04:09:00,
2013-05-18 00:15:00,72.4,67.3,30.10,ESE,109,0.0,2.0,84,0.00,,CLR,0.00,VWS V14.01,2013-05-18 04:15:00,
2013-05-18 00:20:00,72.3,67.5,30.10,ESE,109,0.0,0.0,85,0.00,,CLR,0.00,VWS V14.01,2013-05-18 04:20:00,
2013-05-18 00:25:00,72.2,67.4,30.10,ESE,109,0.0,0.0,85,0.00,,CLR,0.00,VWS V14.01,2013-05-18 04:25:00,
2013-05-18 00:30:00,72.2,67.4,30.10,ESE,109,0.0,0.0,85,0.00,,CLR,0.00,VWS V14.01,2013-05-18 04:30:00,
2013-05-18 00:35:00,72.1,67.3,30.10,ESE,109,0.0,0.0,85,0.00,,CLR,0.00,VWS V14.01,2013-05-18 04:35:00,
2013-05-18 00:40:00,71.9,67.2,30.10,ESE,109,0.0,0.0,85,0.00,,CLR,0.00,VWS V14.01,2013-05-18 04:40:00,
2013-05-18 00:45:00,71.7,66.9,30.10,ESE,109,0.0,0.0,85,0.00,,CLR,0.00,VWS V14.01,2013-05-18 04:45:00,
2013-05-18 00:50:00,71.6,67.2,30.10,ESE,109,0.0,0.0,86,0.00,,CLR,0.00,VWS V14.01,2013-05-18 04:50:00,
2013-05-18 00:55:00,71.4,67.0,30.10,ESE,109,0.0,0.0,86,0.00,,CLR,0.00,VWS V14.01,2013-05-18 04:55:00,
2013-05-18 01:01:00,71.3,66.9,30.10,ESE,109,0.0,2.0,86,0.00,,CLR,0.00,VWS V14.01,2013-05-18 05:01:00,
2013-05-18 01:06:00,71.2,67.1,30.10,ESE,109,0.0,0.0,87,0.00,,CLR,0.00,VWS V14.01,2013-05-18 05:06:00,
2013-05-18 01:11:00,71.1,67.0,30.10,ESE,109,0.0,0.0,87,0.00,,CLR,0.00,VWS V14.01,2013-05-18 05:11:00,
2013-05-18 01:16:00,71.0,66.9,30.10,ESE,109,0.0,2.0,87,0.00,,CLR,0.00,VWS V14.01,2013-05-18 05:16:00,
2013-05-18 01:21:00,70.8,66.7,30.10,ESE,109,0.0,0.0,87,0.00,,CLR,0.00,VWS V14.01,2013-05-18 05:21:00,
2013-05-18 01:26:00,70.8,67.1,30.10,ESE,109,0.0,2.0,88,0.00,,CLR,0.00,VWS V14.01,2013-05-18 05:26:00,
2013-05-18 01:31:00,70.8,66.7,30.10,ESE,109,0.0,2.0,87,0.00,,CLR,0.00,VWS V14.01,2013-05-18 05:31:00,
2013-05-18 01:36:00,70.7,67.0,30.10,ESE,109,0.0,0.0,88,0.00,,CLR,0.00,VWS V14.01,2013-05-18 05:36:00,
2013-05-18 01:41:00,70.6,66.9,30.09,ESE,109,0.0,0.0,88,0.00,,CLR,0.00,VWS V14.01,2013-05-18 05:41:00,
2013-05-18 01:46:00,70.5,66.8,30.09,ESE,109,0.0,0.0,88,0.00,,CLR,0.00,VWS V14.01,2013-05-18 05:46:00,
2013-05-18 01:52:00,70.3,66.6,30.09,ESE,109,0.0,0.0,88,0.00,,CLR,0.00,VWS V14.01,2013-05-18 05:52:00,
2013-05-18 01:57:00,70.3,66.9,30.09,ESE,109,0.0,0.0,89,0.00,,CLR,0.00,VWS V14.01,2013-05-18 05:57:00,
2013-05-18 02:02:00,70.2,66.5,30.09,ESE,109,0.0,0.0,88,0.00,,CLR,0.00,VWS V14.01,2013-05-18 06:02:00,
2013-05-18 02:07:00,70.0,66.6,30.09,ESE,109,0.0,0.0,89,0.00,,CLR,0.00,VWS V14.01,2013-05-18 06:07:00,
2013-05-18 02:12:00,69.9,66.5,30.09,ESE,109,0.0,0.0,89,0.00,,CLR,0.00,VWS V14.01,2013-05-18 06:12:00,
2013-05-18 02:17:00,69.7,66.3,30.09,ESE,109,0.0,0.0,89,0.00,,CLR,0.00,VWS V14.01,2013-05-18 06:17:00,
2013-05-18 02:22:00,69.5,66.4,30.08,ESE,109,0.0,0.0,90,0.00,,CLR,0.00,VWS V14.01,2013-05-18 06:22:00,
2013-05-18 02:27:00,69.4,66.3,30.08,ESE,109,0.0,0.0,90,0.00,,CLR,0.00,VWS V14.01,2013-05-18 06:27:00,
2013-05-18 02:32:00,69.2,66.5,30.08,ESE,109,0.0,0.0,91,0.00,,CLR,0.00,VWS V14.01,2013-05-18 06:32:00,
2013-05-18 02:37:00,69.1,66.4,30.08,ESE,109,0.0,0.0,91,0.00,,CLR,0.00,VWS V14.01,2013-05-18 06:37:00,
2013-05-18 02:43:00,69.0,66.3,30.08,ESE,109,0.0,0.0,91,0.00,,CLR,0.00,VWS V14.01,2013-05-18 06:43:00,
2013-05-18 02:48:00,69.0,66.3,30.08,ESE,109,0.0,0.0,91,0.00,,CLR,0.00,VWS V14.01,2013-05-18 06:48:00,
2013-05-18 02:53:00,68.9,66.2,30.08,ESE,109,0.0,0.0,91,0.00,,CLR,0.00,VWS V14.01,2013-05-18 06:53:00,
2013-05-18 02:58:00,68.8,66.4,30.08,ESE,109,0.0,0.0,92,0.00,,CLR,0.00,VWS V14.01,2013-05-18 06:58:00,
2013-05-18 03:03:00,68.8,66.4,30.08,ESE,109,0.0,0.0,92,0.00,,CLR,0.00,VWS V14.01,2013-05-18 07:03:00,
2013-05-18 03:08:00,68.7,66.3,30.08,ESE,109,0.0,0.0,92,0.00,,CLR,0.00,VWS V14.01,2013-05-18 07:08:00,
2013-05-18 03:13:00,68.7,66.6,30.08,ESE,109,0.0,0.0,93,0.00,,CLR,0.00,VWS V14.01,2013-05-18 07:13:00,
2013-05-18 03:18:00,68.7,66.6,30.08,ESE,109,0.0,0.0,93,0.00,,CLR,0.00,VWS V14.01,2013-05-18 07:18:00,
2013-05-18 03:23:00,68.8,66.7,30.08,ESE,109,0.0,0.0,93,0.00,,CLR,0.00,VWS V14.01,2013-05-18 07:23:00,
2013-05-18 03:28:00,68.9,66.8,30.08,ESE,109,0.0,2.0,93,0.00,,CLR,0.00,VWS V14.01,2013-05-18 07:28:00,
2013-05-18 03:34:00,69.0,66.9,30.08,ESE,109,0.0,0.0,93,0.00,,CLR,0.00,VWS V14.01,2013-05-18 07:34:00,
2013-05-18 03:39:00,69.0,66.9,30.08,ESE,109,0.0,0.0,93,0.00,,CLR,0.00,VWS V14.01,2013-05-18 07:39:00,
2013-05-18 03:44:00,69.0,66.6,30.07,ESE,109,0.0,0.0,92,0.00,,CLR,0.00,VWS V14.01,2013-05-18 07:44:00,
2013-05-18 03:49:00,69.0,66.6,30.08,ESE,109,0.0,0.0,92,0.00,,CLR,0.00,VWS V14.01,2013-05-18 07:49:00,
2013-05-18 03:54:00,68.9,66.8,30.08,ESE,109,0.0,0.0,93,0.00,,CLR,0.00,VWS V14.01,2013-05-18 07:54:00,
2013-05-18 03:59:00,68.8,66.7,30.08,ESE,109,0.0,0.0,93,0.00,,CLR,0.00,VWS V14.01,2013-05-18 07:59:00,
2013-05-18 04:04:00,68.7,66.6,30.08,ESE,109,0.0,0.0,93,0.00,,CLR,0.00,VWS V14.01,2013-05-18 08:04:00,
2013-05-18 04:09:00,68.6,66.5,30.08,ESE,109,0.0,0.0,93,0.00,,CLR,0.00,VWS V14.01,2013-05-18 08:09:00,
2013-05-18 04:14:00,68.5,66.1,30.08,ESE,109,0.0,0.0,92,0.00,,CLR,0.00,VWS V14.01,2013-05-18 08:14:00,
2013-05-18 04:19:00,68.4,66.3,30.08,ESE,109,0.0,0.0,93,0.00,,CLR,0.00,VWS V14.01,2013-05-18 08:19:00,
2013-05-18 04:25:00,68.3,66.2,30.08,ESE,109,0.0,0.0,93,0.00,,CLR,0.00,VWS V14.01,2013-05-18 08:25:00,
2013-05-18 04:30:00,68.1,66.0,30.08,ESE,109,0.0,0.0,93,0.00,,CLR,0.00,VWS V14.01,2013-05-18 08:30:00,
2013-05-18 04:35:00,68.0,65.9,30.08,ESE,109,0.0,0.0,93,0.00,,CLR,0.00,VWS V14.01,2013-05-18 08:35:00,
2013-05-18 04:40:00,67.9,65.8,30.08,ESE,109,0.0,0.0,93,0.00,,CLR,0.00,VWS V14.01,2013-05-18 08:40:00,
2013-05-18 04:45:00,67.7,65.6,30.08,ESE,109,0.0,0.0,93,0.00,,CLR,0.00,VWS V14.01,2013-05-18 08:45:00,
2013-05-18 04:50:00,67.6,65.5,30.07,ESE,109,0.0,0.0,93,0.00,,CLR,0.00,VWS V14.01,2013-05-18 08:50:00,
2013-05-18 04:55:00,67.4,65.6,30.08,ESE,109,0.0,0.0,94,0.00,,CLR,0.00,VWS V14.01,2013-05-18 08:55:00,
2013-05-18 05:00:00,67.3,65.5,30.07,ESE,109,0.0,0.0,94,0.00,,CLR,0.00,VWS V14.01,2013-05-18 09:00:00,
2013-05-18 05:05:00,67.3,65.5,30.08,ESE,109,0.0,0.0,94,0.00,,CLR,0.00,VWS V14.01,2013-05-18 09:05:00,
2013-05-18 05:11:00,67.1,65.3,30.07,ESE,109,0.0,0.0,94,0.00,,CLR,0.00,VWS V14.01,2013-05-18 09:11:00,
2013-05-18 05:16:00,67.0,65.2,30.07,ESE,109,0.0,0.0,94,0.00,,CLR,0.00,VWS V14.01,2013-05-18 09:16:00,
2013-05-18 05:21:00,66.9,65.4,30.07,ESE,109,0.0,0.0,95,0.00,,CLR,0.00,VWS V14.01,2013-05-18 09:21:00,
2013-05-18 05:26:00,66.9,65.4,30.07,ESE,109,0.0,0.0,95,0.00,,CLR,0.00,VWS V14.01,2013-05-18 09:26:00,
2013-05-18 05:31:00,66.8,65.3,30.08,ESE,109,0.0,0.0,95,0.00,,CLR,0.00,VWS V14.01,2013-05-18 09:31:00,
2013-05-18 05:36:00,66.7,65.2,30.08,ESE,109,0.0,0.0,95,0.00,,CLR,0.00,VWS V14.01,2013-05-18 09:36:00,
2013-05-18 05:41:00,66.7,65.2,30.08,ESE,109,0.0,0.0,95,0.00,,CLR,0.00,VWS V14.01,2013-05-18 09:41:00,
2013-05-18 05:46:00,66.8,65.3,30.08,ESE,109,0.0,0.0,95,0.00,,CLR,0.00,VWS V14.01,2013-05-18 09:46:00,
2013-05-18 05:51:00,66.7,65.2,30.08,ESE,109,0.0,0.0,95,0.00,,CLR,0.00,VWS V14.01,2013-05-18 09:51:00,
2013-05-18 05:56:00,66.7,65.2,30.08,ESE,109,0.0,0.0,95,0.00,,CLR,0.00,VWS V14.01,2013-05-18 09:56:00,
2013-05-18 06:01:00,66.7,65.2,30.08,ESE,109,0.0,0.0,95,0.00,,CLR,0.00,VWS V14.01,2013-05-18 10:01:00,
2013-05-18 06:07:00,66.6,65.4,30.08,ESE,109,0.0,0.0,96,0.00,,CLR,0.00,VWS V14.01,2013-05-18 10:07:00,
2013-05-18 06:12:00,66.5,65.0,30.08,ESE,109,0.0,0.0,95,0.00,,CLR,0.00,VWS V14.01,2013-05-18 10:12:00,
2013-05-18 06:17:00,66.5,65.0,30.09,ESE,109,0.0,0.0,95,0.00,,CLR,0.00,VWS V14.01,2013-05-18 10:17:00,
2013-05-18 06:22:00,66.4,65.2,30.09,ESE,109,0.0,0.0,96,0.00,,CLR,0.00,VWS V14.01,2013-05-18 10:22:00,
2013-05-18 06:27:00,66.4,65.2,30.09,ESE,109,0.0,0.0,96,0.00,,CLR,0.00,VWS V14.01,2013-05-18 10:27:00,
2013-05-18 06:32:00,66.4,65.2,30.09,ESE,109,0.0,0.0,96,0.00,,CLR,0.00,VWS V14.01,2013-05-18 10:32:00,
2013-05-18 06:37:00,66.4,65.2,30.09,ESE,109,0.0,0.0,96,0.00,,CLR,0.00,VWS V14.01,2013-05-18 10:37:00,
2013-05-18 06:42:00,66.4,65.2,30.09,ESE,109,0.0,0.0,96,0.00,,CLR,0.00,VWS V14.01,2013-05-18 10:42:00,
2013-05-18 06:47:00,66.4,65.2,30.09,ESE,109,0.0,0.0,96,0.00,,CLR,0.00,VWS V14.01,2013-05-18 10:47:00,
2013-05-18 06:53:00,66.4,65.2,30.09,ESE,109,0.0,0.0,96,0.00,,CLR,0.00,VWS V14.01,2013-05-18 10:53:00,
2013-05-18 06:58:00,66.4,65.2,30.10,ESE,109,0.0,0.0,96,0.00,,CLR,0.00,VWS V14.01,2013-05-18 10:58:00,
2013-05-18 07:03:00,66.4,65.5,30.10,ESE,109,0.0,0.0,97,0.00,,CLR,0.00,VWS V14.01,2013-05-18 11:03:00,
2013-05-18 07:08:00,66.5,65.6,30.10,ESE,109,0.0,0.0,97,0.00,,CLR,0.00,VWS V14.01,2013-05-18 11:08:00,
2013-05-18 07:13:00,66.6,65.7,30.10,ESE,109,0.0,0.0,97,0.00,,CLR,0.00,VWS V14.01,2013-05-18 11:13:00,
2013-05-18 07:18:00,66.8,65.9,30.10,ESE,109,0.0,0.0,97,0.00,,CLR,0.00,VWS V14.01,2013-05-18 11:18:00,
2013-05-18 07:23:00,67.0,66.1,30.10,ESE,109,0.0,0.0,97,0.00,,CLR,0.00,VWS V14.01,2013-05-18 11:23:00,
2013-05-18 07:28:00,67.2,66.3,30.10,ESE,109,0.0,0.0,97,0.00,,CLR,0.00,VWS V14.01,2013-05-18 11:28:00,
2013-05-18 07:33:00,67.5,66.6,30.10,ESE,109,0.0,0.0,97,0.00,,CLR,0.00,VWS V14.01,2013-05-18 11:33:00,
2013-05-18 07:38:00,67.8,67.2,30.10,ESE,109,0.0,0.0,98,0.00,,CLR,0.00,VWS V14.01,2013-05-18 11:38:00,
2013-05-18 07:44:00,68.2,67.6,30.10,ESE,109,0.0,0.0,98,0.00,,CLR,0.00,VWS V14.01,2013-05-18 11:44:00,
2013-05-18 07:49:00,68.8,68.2,30.11,ESE,109,0.0,2.0,98,0.00,,CLR,0.00,VWS V14.01,2013-05-18 11:49:00,
2013-05-18 07:54:00,69.5,68.9,30.11,ESE,109,0.0,2.0,98,0.00,,CLR,0.00,VWS V14.01,2013-05-18 11:54:00,
2013-05-18 07:59:00,70.2,69.6,30.11,ESE,109,0.0,2.0,98,0.00,,CLR,0.00,VWS V14.01,2013-05-18 11:59:00,
2013-05-18 08:04:00,71.1,69.9,30.11,ESE,110,0.0,6.0,96,0.00,,CLR,0.00,VWS V14.01,2013-05-18 12:04:00,
2013-05-18 08:09:00,71.9,70.1,30.11,ESE,113,6.0,8.0,94,0.00,,CLR,0.00,VWS V14.01,2013-05-18 12:09:00,
2013-05-18 08:14:00,72.8,70.3,30.11,ESE,117,2.0,6.0,92,0.00,,CLR,0.00,VWS V14.01,2013-05-18 12:14:00,
2013-05-18 08:19:00,73.8,70.7,30.11,ESE,122,2.0,6.0,90,0.00,,CLR,0.00,VWS V14.01,2013-05-18 12:19:00,
2013-05-18 08:24:00,74.6,70.8,30.11,ESE,121,0.0,6.0,88,0.00,,CLR,0.00,VWS V14.01,2013-05-18 12:24:00,
2013-05-18 08:29:00,75.4,71.3,30.11,ESE,107,4.0,4.0,87,0.00,,CLR,0.00,VWS V14.01,2013-05-18 12:29:00,
2013-05-18 08:35:00,75.9,70.7,30.11,ESE,118,6.0,6.0,84,0.00,,CLR,0.00,VWS V14.01,2013-05-18 12:35:00,
2013-05-18 08:40:00,76.3,70.8,30.11,East,101,6.0,8.0,83,0.00,,CLR,0.00,VWS V14.01,2013-05-18 12:40:00,
2013-05-18 08:45:00,76.7,71.2,30.11,ESE,122,4.0,4.0,83,0.00,,CLR,0.00,VWS V14.01,2013-05-18 12:45:00,
2013-05-18 08:50:00,77.5,71.6,30.12,ESE,106,2.0,2.0,82,0.00,,CLR,0.00,VWS V14.01,2013-05-18 12:50:00,
2013-05-18 08:55:00,78.1,71.4,30.12,East,90,2.0,4.0,80,0.00,,CLR,0.00,VWS V14.01,2013-05-18 12:55:00,
2013-05-18 09:00:00,78.7,72.0,30.12,South,171,2.0,2.0,80,0.00,,CLR,0.00,VWS V14.01,2013-05-18 13:00:00,
2013-05-18 09:05:00,79.2,71.8,30.12,SSE,153,2.0,2.0,78,0.00,,CLR,0.00,VWS V14.01,2013-05-18 13:05:00,
2013-05-18 09:10:00,79.8,72.3,30.12,ESE,113,2.0,2.0,78,0.00,,CLR,0.00,VWS V14.01,2013-05-18 13:10:00,
2013-05-18 09:15:00,80.3,72.4,30.12,East,101,0.0,4.0,77,0.00,,CLR,0.00,VWS V14.01,2013-05-18 13:15:00,
2013-05-18 09:21:00,80.6,71.9,30.12,ESE,120,2.0,6.0,75,0.00,,CLR,0.00,VWS V14.01,2013-05-18 13:21:00,
2013-05-18 09:26:00,80.8,72.1,30.12,South,171,0.0,2.0,75,0.00,,CLR,0.00,VWS V14.01,2013-05-18 13:26:00,
2013-05-18 09:31:00,81.1,72.0,30.13,East,91,0.0,4.0,74,0.00,,CLR,0.00,VWS V14.01,2013-05-18 13:31:00,
2013-05-18 09:36:00,81.1,72.4,30.13,ESE,118,4.0,4.0,75,0.00,,CLR,0.00,VWS V14.01,2013-05-18 13:36:00,
2013-05-18 09:41:00,81.3,72.2,30.13,East,101,4.0,6.0,74,0.00,,CLR,0.00,VWS V14.01,2013-05-18 13:41:00,
2013-05-18 09:46:00,81.0,71.9,30.12,East,88,2.0,4.0,74,0.00,,CLR,0.00,VWS V14.01,2013-05-18 13:46:00,
2013-05-18 09:51:00,81.0,72.3,30.13,ESE,104,2.0,4.0,75,0.00,,CLR,0.00,VWS V14.01,2013-05-18 13:51:00,
2013-05-18 09:56:00,80.9,71.8,30.13,SW,226,4.0,6.0,74,0.00,,CLR,0.00,VWS V14.01,2013-05-18 13:56:00,
2013-05-18 10:01:00,80.6,71.6,30.13,WSW,257,2.0,4.0,74,0.00,,SCT017,0.00,VWS V14.01,2013-05-18 14:01:00,
2013-05-18 10:07:00,80.7,72.0,30.12,NW,317,0.0,6.0,75,0.00,,SCT017,0.00,VWS V14.01,2013-05-18 14:07:00,
2013-05-18 10:12:00,81.3,71.8,30.13,WNW,290,0.0,4.0,73,0.00,,SCT017,0.00,VWS V14.01,2013-05-18 14:12:00,
2013-05-18 10:17:00,82.0,72.1,30.13,West,265,0.0,4.0,72,0.00,,SCT017,0.00,VWS V14.01,2013-05-18 14:17:00,
2013-05-18 10:22:00,82.5,71.7,30.12,NW,306,2.0,2.0,70,0.00,,SCT017,0.00,VWS V14.01,2013-05-18 14:22:00,
2013-05-18 10:27:00,83.3,72.5,30.12,ENE,70,0.0,4.0,70,0.00,,SCT017,0.00,VWS V14.01,2013-05-18 14:27:00,
2013-05-18 10:32:00,84.0,71.9,30.12,East,87,2.0,6.0,67,0.00,,SCT017,0.00,VWS V14.01,2013-05-18 14:32:00,
2013-05-18 10:37:00,83.5,71.4,30.12,NW,312,4.0,8.0,67,0.00,,SCT017,0.00,VWS V14.01,2013-05-18 14:37:00,
2013-05-18 10:42:00,83.6,72.8,30.12,ENE,66,2.0,2.0,70,0.00,,SCT017,0.00,VWS V14.01,2013-05-18 14:42:00,
2013-05-18 10:47:00,84.7,72.1,30.12,ESE,112,2.0,6.0,66,0.00,,SCT017,0.00,VWS V14.01,2013-05-18 14:47:00,
2013-05-18 10:52:00,85.6,71.6,30.12,ENE,58,2.0,6.0,63,0.00,,SCT017,0.00,VWS V14.01,2013-05-18 14:52:00,
2013-05-18 10:58:00,85.6,72.0,30.12,ESE,111,2.0,8.0,64,0.00,,SCT017,0.00,VWS V14.01,2013-05-18 14:58:00,
2013-05-18 11:03:00,86.1,71.6,30.12,West,262,0.0,2.0,62,0.00,,SCT029,0.00,VWS V14.01,2013-05-18 15:03:00,
2013-05-18 11:08:00,86.9,71.3,30.12,East,101,2.0,6.0,60,0.00,,SCT029,0.00,VWS V14.01,2013-05-18 15:08:00,
2013-05-18 11:13:00,87.2,70.6,30.12,NW,321,0.0,4.0,58,0.00,,SCT029,0.00,VWS V14.01,2013-05-18 15:13:00,
2013-05-18 11:18:00,88.1,70.4,30.12,NW,311,2.0,4.0,56,0.00,,SCT029,0.00,VWS V14.01,2013-05-18 15:18:00,
2013-05-18 11:23:00,88.1,71.0,30.12,ENE,74,0.0,6.0,57,0.00,,SCT029,0.00,VWS V14.01,2013-05-18 15:23:00,
2013-05-18 11:28:00,88.6,71.4,30.12,ENE,75,0.0,2.0,57,0.00,,SCT029,0.00,VWS V14.01,2013-05-18 15:28:00,
2013-05-18 11:33:00,89.0,71.3,30.12,NW,305,0.0,4.0,56,0.00,,SCT029,0.00,VWS V14.01,2013-05-18 15:33:00,
2013-05-18 11:38:00,88.9,69.6,30.11,SW,217,4.0,8.0,53,0.00,,SCT029,0.00,VWS V14.01,2013-05-18 15:38:00,
2013-05-18 11:44:00,88.3,70.6,30.11,WNW,290,0.0,6.0,56,0.00,,SCT029,0.00,VWS V14.01,2013-05-18 15:44:00,
2013-05-18 11:49:00,87.5,69.9,30.11,WSW,253,6.0,8.0,56,0.00,,SCT029,0.00,VWS V14.01,2013-05-18 15:49:00,
2013-05-18 11:54:00,87.7,70.6,30.11,North,355,2.0,6.0,57,0.00,,SCT029,0.00,VWS V14.01,2013-05-18 15:54:00,
2013-05-18 11:59:00,87.4,69.3,30.11,West,271,2.0,10.0,55,0.00,,SCT029,0.00,VWS V14.01,2013-05-18 15:59:00,
2013-05-18 12:04:00,86.8,69.2,30.10,NE,56,2.0,4.0,56,0.00,,SCT038,0.00,VWS V14.01,2013-05-18 16:04:00,
2013-05-18 12:09:00,86.1,69.1,30.10,NE,55,2.0,4.0,57,0.00,,SCT038,0.00,VWS V14.01,2013-05-18 16:09:00,
2013-05-18 12:14:00,86.1,68.1,30.10,NE,55,0.0,4.0,55,0.00,,SCT038,0.00,VWS V14.01,2013-05-18 16:14:00,
2013-05-18 12:19:00,86.9,68.8,30.10,NNE,17,2.0,4.0,55,0.00,,SCT038,0.00,VWS V14.01,2013-05-18 16:19:00,
2013-05-18 12:24:00,87.9,68.1,30.10,WNW,303,0.0,6.0,52,0.00,,SCT038,0.00,VWS V14.01,2013-05-18 16:24:00,
2013-05-18 12:29:00,88.0,68.2,30.10,NNE,15,2.0,6.0,52,0.00,,SCT038,0.00,VWS V14.01,2013-05-18 16:29:00,
2013-05-18 12:34:00,87.4,67.6,30.09,NE,49,2.0,4.0,52,0.00,,SCT038,0.00,VWS V14.01,2013-05-18 16:34:00,
2013-05-18 12:39:00,87.4,68.7,30.09,North,3,4.0,6.0,54,0.00,,SCT038,0.00,VWS V14.01,2013-05-18 16:39:00,
2013-05-18 12:44:00,88.6,68.7,30.09,WNW,289,6.0,8.0,52,0.00,,SCT038,0.00,VWS V14.01,2013-05-18 16:44:00,
2013-05-18 12:49:00,88.8,67.2,30.09,SW,221,2.0,8.0,49,0.00,,SCT038,0.00,VWS V14.01,2013-05-18 16:49:00,
2013-05-18 12:54:00,89.4,68.3,30.09,SSW,209,0.0,4.0,50,0.00,,SCT038,0.00,VWS V14.01,2013-05-18 16:54:00,
2013-05-18 12:59:00,90.2,67.3,30.08,WSW,240,0.0,8.0,47,0.00,,SCT038,0.00,VWS V14.01,2013-05-18 16:59:00,
2013-05-18 13:04:00,90.2,68.5,30.08,NNW,327,2.0,8.0,49,0.00,,FEW050,0.00,VWS V14.01,2013-05-18 17:04:00,
2013-05-18 13:09:00,89.5,67.2,30.08,NNW,327,2.0,2.0,48,0.00,,FEW050,0.00,VWS V14.01,2013-05-18 17:09:00,
2013-05-18 13:14:00,89.1,69.2,30.08,NW,323,2.0,2.0,52,0.00,,FEW050,0.00,VWS V14.01,2013-05-18 17:14:00,
2013-05-18 13:19:00,89.5,68.4,30.08,East,87,4.0,6.0,50,0.00,,FEW050,0.00,VWS V14.01,2013-05-18 17:19:00,
2013-05-18 13:24:00,90.2,66.6,30.08,East,100,4.0,6.0,46,0.00,,FEW050,0.00,VWS V14.01,2013-05-18 17:24:00,
2013-05-18 13:30:00,91.2,65.6,30.08,East,98,2.0,2.0,43,0.00,,FEW050,0.00,VWS V14.01,2013-05-18 17:30:00,
2013-05-18 13:35:00,91.3,65.7,30.07,SE,128,2.0,2.0,43,0.00,,FEW050,0.00,VWS V14.01,2013-05-18 17:35:00,
2013-05-18 13:40:00,91.2,64.2,30.07,East,80,2.0,2.0,41,0.00,,FEW050,0.00,VWS V14.01,2013-05-18 17:40:00,
2013-05-18 13:45:00,91.8,64.1,30.07,SW,224,4.0,6.0,40,0.00,,FEW050,0.00,VWS V14.01,2013-05-18 17:45:00,
2013-05-18 13:50:00,91.6,66.0,30.07,WSW,249,0.0,0.0,43,0.00,,FEW050,0.00,VWS V14.01,2013-05-18 17:50:00,
2013-05-18 13:55:00,91.7,66.7,30.07,West,266,4.0,8.0,44,0.00,,FEW050,0.00,VWS V14.01,2013-05-18 17:55:00,
2013-05-18 14:00:00,92.1,64.3,30.07,SSE,165,0.0,4.0,40,0.00,,FEW060,0.00,VWS V14.01,2013-05-18 18:00:00,
2013-05-18 14:05:00,92.9,65.8,30.07,ENE,58,2.0,2.0,41,0.00,,FEW060,0.00,VWS V14.01,2013-05-18 18:05:00,
2013-05-18 14:10:00,93.0,63.7,30.07,East,101,4.0,6.0,38,0.00,,FEW060,0.00,VWS V14.01,2013-05-18 18:10:00,
2013-05-18 14:15:00,93.4,64.8,30.07,East,96,2.0,2.0,39,0.00,,FEW060,0.00,VWS V14.01,2013-05-18 18:15:00,
2013-05-18 14:21:00,92.9,64.3,30.07,SE,129,4.0,4.0,39,0.00,,FEW060,0.00,VWS V14.01,2013-05-18 18:21:00,
2013-05-18 14:26:00,91.6,64.6,30.07,West,276,2.0,4.0,41,0.00,,FEW060,0.00,VWS V14.01,2013-05-18 18:26:00,
2013-05-18 14:31:00,90.7,64.5,30.07,NW,311,2.0,4.0,42,0.00,,FEW060,0.00,VWS V14.01,2013-05-18 18:31:00,
2013-05-18 14:36:00,90.1,63.9,30.06,NW,311,0.0,2.0,42,0.00,,FEW060,0.00,VWS V14.01,2013-05-18 18:36:00,
2013-05-18 14:41:00,89.6,66.1,30.06,NW,313,2.0,4.0,46,0.00,,FEW060,0.00,VWS V14.01,2013-05-18 18:41:00,
2013-05-18 14:46:00,88.9,65.5,30.06,NW,313,0.0,2.0,46,0.00,,FEW060,0.00,VWS V14.01,2013-05-18 18:46:00,
2013-05-18 14:51:00,88.3,64.9,30.06,ENE,66,0.0,0.0,46,0.00,,FEW060,0.00,VWS V14.01,2013-05-18 18:51:00,
2013-05-18 14:56:00,88.1,65.3,30.05,ENE,66,0.0,2.0,47,0.00,,FEW060,0.00,VWS V14.01,2013-05-18 18:56:00,
2013-05-18 15:01:00,88.2,64.8,30.05,East,99,2.0,4.0,46,0.00,,FEW060,0.00,VWS V14.01,2013-05-18 19:01:00,
2013-05-18 15:07:00,88.9,65.5,30.05,East,99,0.0,4.0,46,0.00,,FEW060,0.00,VWS V14.01,2013-05-18 19:07:00,
2013-05-18 15:12:00,90.2,64.7,30.05,East,84,0.0,4.0,43,0.00,,FEW060,0.00,VWS V14.01,2013-05-18 19:12:00,
2013-05-18 15:17:00,91.5,64.5,30.05,East,84,0.0,4.0,41,0.00,,FEW060,0.00,VWS V14.01,2013-05-18 19:17:00,
2013-05-18 15:22:00,92.7,66.3,30.05,NE,41,4.0,4.0,42,0.00,,FEW060,0.00,VWS V14.01,2013-05-18 19:22:00,
2013-05-18 15:27:00,93.7,65.8,30.04,North,1,0.0,2.0,40,0.00,,FEW060,0.00,VWS V14.01,2013-05-18 19:27:00,
2013-05-18 15:32:00,94.2,64.7,30.04,ESE,105,4.0,6.0,38,0.00,,FEW060,0.00,VWS V14.01,2013-05-18 19:32:00,
2013-05-18 15:37:00,94.3,64.8,30.04,NNW,345,2.0,6.0,38,0.00,,FEW060,0.00,VWS V14.01,2013-05-18 19:37:00,
2013-05-18 15:42:00,94.5,64.2,30.04,NW,317,4.0,4.0,37,0.00,,FEW060,0.00,VWS V14.01,2013-05-18 19:42:00,
2013-05-18 15:47:00,95.2,63.3,30.04,ESE,112,6.0,10.0,35,0.00,,FEW060,0.00,VWS V14.01,2013-05-18 19:47:00,
2013-05-18 15:52:00,95.2,64.8,30.03,NE,55,2.0,6.0,37,0.00,,FEW060,0.00,VWS V14.01,2013-05-18 19:52:00,
2013-05-18 15:58:00,95.1,64.0,30.03,NE,44,0.0,4.0,36,0.00,,FEW060,0.00,VWS V14.01,2013-05-18 19:58:00,
2013-05-18 16:03:00,95.3,63.3,30.03,ESE,103,2.0,8.0,35,0.00,,FEW060,0.00,VWS V14.01,2013-05-18 20:03:00,
2013-05-18 16:08:00,95.5,65.1,30.03,East,85,2.0,6.0,37,0.00,,FEW060,0.00,VWS V14.01,2013-05-18 20:08:00,
2013-05-18 16:13:00,94.8,62.9,30.03,East,84,2.0,6.0,35,0.00,,FEW060,0.00,VWS V14.01,2013-05-18 20:13:00,
2013-05-18 16:18:00,94.2,63.2,30.03,ESE,109,2.0,6.0,36,0.00,,FEW060,0.00,VWS V14.01,2013-05-18 20:18:00,
2013-05-18 16:23:00,94.3,67.0,30.03,West,276,4.0,6.0,41,0.00,,FEW060,0.00,VWS V14.01,2013-05-18 20:23:00,
2013-05-18 16:28:00,93.2,70.0,30.03,WNW,286,4.0,8.0,47,0.00,,FEW060,0.00,VWS V14.01,2013-05-18 20:28:00,
2013-05-18 16:33:00,92.2,70.3,30.03,WSW,237,0.0,6.0,49,0.00,,FEW060,0.00,VWS V14.01,2013-05-18 20:33:00,
2013-05-18 16:38:00,91.1,70.5,30.03,NE,43,0.0,6.0,51,0.00,,FEW060,0.00,VWS V14.01,2013-05-18 20:38:00,
2013-05-18 16:43:00,90.2,71.3,30.03,ENE,68,2.0,6.0,54,0.00,,FEW060,0.00,VWS V14.01,2013-05-18 20:43:00,
2013-05-18 16:49:00,89.1,70.8,30.03,East,88,4.0,6.0,55,0.00,,FEW060,0.00,VWS V14.01,2013-05-18 20:49:00,
2013-05-18 16:54:00,88.3,70.6,30.03,ENE,65,2.0,6.0,56,0.00,,FEW060,0.00,VWS V14.01,2013-05-18 20:54:00,
2013-05-18 16:59:00,88.0,71.4,30.03,ENE,59,4.0,6.0,58,0.00,,FEW060,0.00,VWS V14.01,2013-05-18 20:59:00,
2013-05-18 17:04:00,87.6,71.0,30.03,NE,47,6.0,10.0,58,0.00,,FEW060TCU,0.00,VWS V14.01,2013-05-18 21:04:00,
2013-05-18 17:09:00,87.1,70.5,30.03,ENE,74,4.0,10.0,58,0.00,,FEW060TCU,0.00,VWS V14.01,2013-05-18 21:09:00,
2013-05-18 17:14:00,86.6,71.1,30.03,East,92,2.0,10.0,60,0.00,,FEW060TCU,0.00,VWS V14.01,2013-05-18 21:14:00,
2013-05-18 17:19:00,86.2,70.7,30.03,East,87,6.0,14.0,60,0.00,,FEW060TCU,0.00,VWS V14.01,2013-05-18 21:19:00,
2013-05-18 17:24:00,86.2,70.7,30.03,East,99,4.0,14.0,60,0.00,,FEW060TCU,0.00,VWS V14.01,2013-05-18 21:24:00,
2013-05-18 17:29:00,86.6,71.1,30.03,ESE,113,6.0,14.0,60,0.00,,FEW060TCU,0.00,VWS V14.01,2013-05-18 21:29:00,
2013-05-18 17:34:00,86.7,71.7,30.03,ENE,67,6.0,10.0,61,0.00,,FEW060TCU,0.00,VWS V14.01,2013-05-18 21:34:00,
2013-05-18 17:40:00,86.1,71.1,30.02,ESE,103,14.0,14.0,61,0.00,,FEW060TCU,0.00,VWS V14.01,2013-05-18 21:40:00,
2013-05-18 17:45:00,85.8,70.8,30.02,East,100,6.0,8.0,61,0.00,,FEW060TCU,0.00,VWS V14.01,2013-05-18 21:45:00,
2013-05-18 17:50:00,85.8,70.8,30.02,SW,224,8.0,8.0,61,0.00,,FEW060TCU,0.00,VWS V14.01,2013-05-18 21:50:00,
2013-05-18 17:55:00,86.1,70.6,30.02,East,100,4.0,10.0,60,0.00,,FEW060TCU,0.00,VWS V14.01,2013-05-18 21:55:00,
2013-05-18 18:00:00,86.0,70.5,30.02,East,88,10.0,20.0,60,0.00,,FEW060TCU,0.00,VWS V14.01,2013-05-18 22:00:00,
2013-05-18 18:05:00,85.9,70.4,30.02,East,88,14.0,14.0,60,0.00,,FEW050,0.00,VWS V14.01,2013-05-18 22:05:00,
2013-05-18 18:10:00,85.7,70.7,30.02,SE,138,6.0,6.0,61,0.00,,FEW050,0.00,VWS V14.01,2013-05-18 22:10:00,
2013-05-18 18:15:00,85.9,70.9,30.02,East,87,10.0,10.0,61,0.00,,FEW050,0.00,VWS V14.01,2013-05-18 22:15:00,
2013-05-18 18:20:00,85.6,70.6,30.02,ESE,112,6.0,16.0,61,0.00,,FEW050,0.00,VWS V14.01,2013-05-18 22:20:00,
2013-05-18 18:25:00,85.1,70.6,30.02,NE,51,4.0,14.0,62,0.00,,FEW050,0.00,VWS V14.01,2013-05-18 22:25:00,
2013-05-18 18:31:00,84.8,70.3,30.02,ESE,122,8.0,14.0,62,0.00,,FEW050,0.00,VWS V14.01,2013-05-18 22:31:00,
2013-05-18 18:36:00,84.7,70.2,30.02,ESE,104,6.0,14.0,62,0.00,,FEW050,0.00,VWS V14.01,2013-05-18 22:36:00,
2013-05-18 18:41:00,84.4,70.4,30.02,East,81,2.0,4.0,63,0.00,,FEW050,0.00,VWS V14.01,2013-05-18 22:41:00,
2013-05-18 18:46:00,84.1,70.2,30.02,ENE,69,10.0,24.0,63,0.00,,FEW050,0.00,VWS V14.01,2013-05-18 22:46:00,
2013-05-18 18:51:00,83.7,70.2,30.03,ENE,67,8.0,16.0,64,0.00,,FEW050,0.00,VWS V14.01,2013-05-18 22:51:00,
2013-05-18 18:56:00,83.3,69.9,30.03,East,90,4.0,14.0,64,0.00,,FEW050,0.00,VWS V14.01,2013-05-18 22:56:00,
2013-05-18 19:01:00,83.0,70.0,30.03,ENE,65,8.0,16.0,65,0.00,,FEW070,0.00,VWS V14.01,2013-05-18 23:01:00,
2013-05-18 19:06:00,82.7,70.2,30.03,East,83,4.0,16.0,66,0.00,,FEW070,0.00,VWS V14.01,2013-05-18 23:06:00,
2013-05-18 19:11:00,82.3,69.8,30.03,East,79,10.0,20.0,66,0.00,,FEW070,0.00,VWS V14.01,2013-05-18 23:11:00,
2013-05-18 19:17:00,81.9,69.9,30.03,East,88,12.0,18.0,67,0.00,,FEW070,0.00,VWS V14.01,2013-05-18 23:17:00,
2013-05-18 19:22:00,81.9,69.9,30.04,ESE,112,10.0,20.0,67,0.00,,FEW070,0.00,VWS V14.01,2013-05-18 23:22:00,
2013-05-18 19:27:00,81.8,70.2,30.04,ENE,66,4.0,16.0,68,0.00,,FEW070,0.00,VWS V14.01,2013-05-18 23:27:00,
2013-05-18 19:32:00,81.5,70.4,30.04,ESE,105,10.0,14.0,69,0.00,,FEW070,0.00,VWS V14.01,2013-05-18 23:32:00,
2013-05-18 19:37:00,81.3,70.2,30.04,ENE,76,4.0,18.0,69,0.00,,FEW070,0.00,VWS V14.01,2013-05-18 23:37:00,
2013-05-18 19:42:00,81.1,70.4,30.04,ENE,65,8.0,18.0,70,0.00,,FEW070,0.00,VWS V14.01,2013-05-18 23:42:00,
2013-05-18 19:47:00,80.9,70.2,30.04,ESE,112,6.0,14.0,70,0.00,,FEW070,0.00,VWS V14.01,2013-05-18 23:47:00,
2013-05-18 19:52:00,80.4,70.1,30.04,East,88,4.0,18.0,71,0.00,,FEW070,0.00,VWS V14.01,2013-05-18 23:52:00,
2013-05-18 19:57:00,80.1,70.3,30.04,East,92,4.0,16.0,72,0.00,,FEW070,0.00,VWS V14.01,2013-05-18 23:57:00,
2013-05-18 20:02:00,79.8,70.4,30.05,NE,53,6.0,16.0,73,0.00,,FEW027,0.00,VWS V14.01,2013-05-19 00:02:00,
2013-05-18 20:08:00,79.7,70.7,30.05,ESE,107,6.0,10.0,74,0.00,,FEW027,0.00,VWS V14.01,2013-05-19 00:08:00,
2013-05-18 20:13:00,79.4,70.4,30.05,East,99,4.0,14.0,74,0.00,,FEW027,0.00,VWS V14.01,2013-05-19 00:13:00,
2013-05-18 20:18:00,79.2,70.6,30.05,SE,134,8.0,16.0,75,0.00,,FEW027,0.00,VWS V14.01,2013-05-19 00:18:00,
2013-05-18 20:23:00,78.9,70.7,30.05,ESE,120,6.0,14.0,76,0.00,,FEW027,0.00,VWS V14.01,2013-05-19 00:23:00,
2013-05-18 20:28:00,78.9,70.7,30.05,ESE,122,6.0,10.0,76,0.00,,FEW027,0.00,VWS V14.01,2013-05-19 00:28:00,
2013-05-18 20:33:00,78.8,70.6,30.05,East,101,6.0,18.0,76,0.00,,FEW027,0.00,VWS V14.01,2013-05-19 00:33:00,
2013-05-18 20:38:00,78.6,70.8,30.06,ENE,69,6.0,10.0,77,0.00,,FEW027,0.00,VWS V14.01,2013-05-19 00:38:00,
2013-05-18 20:43:00,78.4,70.6,30.06,ESE,113,10.0,12.0,77,0.00,,FEW027,0.00,VWS V14.01,2013-05-19 00:43:00,
2013-05-18 20:48:00,78.4,71.0,30.06,ESE,105,6.0,14.0,78,0.00,,FEW027,0.00,VWS V14.01,2013-05-19 00:48:00,
2013-05-18 20:53:00,78.2,70.8,30.06,East,100,8.0,18.0,78,0.00,,FEW027,0.00,VWS V14.01,2013-05-19 00:53:00,
2013-05-18 20:58:00,78.0,71.0,30.05,East,101,8.0,16.0,79,0.00,,FEW027,0.00,VWS V14.01,2013-05-19 00:58:00,
2013-05-18 21:04:00,77.8,70.8,30.05,East,89,12.0,20.0,79,0.00,,FEW060,0.00,VWS V14.01,2013-05-19 01:04:00,
2013-05-18 21:09:00,77.8,70.8,30.05,ESE,113,16.0,16.0,79,0.00,,FEW060,0.00,VWS V14.01,2013-05-19 01:09:00,
2013-05-18 21:14:00,77.7,70.7,30.05,ENE,74,2.0,14.0,79,0.00,,FEW060,0.00,VWS V14.01,2013-05-19 01:14:00,
2013-05-18 21:19:00,77.5,70.8,30.05,ESE,109,10.0,12.0,80,0.00,,FEW060,0.00,VWS V14.01,2013-05-19 01:19:00,
2013-05-18 21:24:00,77.3,70.7,30.06,East,101,4.0,8.0,80,0.00,,FEW060,0.00,VWS V14.01,2013-05-19 01:24:00,
2013-05-18 21:29:00,77.2,70.9,30.06,East,96,4.0,10.0,81,0.00,,FEW060,0.00,VWS V14.01,2013-05-19 01:29:00,
2013-05-18 21:34:00,77.0,70.7,30.06,East,97,6.0,10.0,81,0.00,,FEW060,0.00,VWS V14.01,2013-05-19 01:34:00,
2013-05-18 21:39:00,76.9,70.6,30.06,East,92,6.0,14.0,81,0.00,,FEW060,0.00,VWS V14.01,2013-05-19 01:39:00,
2013-05-18 21:44:00,76.7,70.8,30.06,SE,138,12.0,14.0,82,0.00,,FEW060,0.00,VWS V14.01,2013-05-19 01:44:00,
2013-05-18 21:49:00,76.9,71.0,30.06,East,82,6.0,14.0,82,0.00,,FEW060,0.00,VWS V14.01,2013-05-19 01:49:00,
2013-05-18 21:54:00,76.7,70.8,30.06,East,93,6.0,18.0,82,0.00,,FEW060,0.00,VWS V14.01,2013-05-19 01:54:00,
2013-05-18 21:59:00,76.6,70.7,30.07,East,95,14.0,14.0,82,0.00,,FEW060,0.00,VWS V14.01,2013-05-19 01:59:00,
2013-05-18 22:05:00,76.5,71.0,30.07,East,86,4.0,10.0,83,0.00,,FEW060,0.00,VWS V14.01,2013-05-19 02:05:00,
2013-05-18 22:10:00,76.5,71.0,30.08,ENE,76,4.0,6.0,83,0.00,,FEW060,0.00,VWS V14.01,2013-05-19 02:10:00,
2013-05-18 22:15:00,76.5,71.0,30.08,ESE,107,0.0,2.0,83,0.00,,FEW060,0.00,VWS V14.01,2013-05-19 02:15:00,
2013-05-18 22:20:00,76.4,70.9,30.08,East,94,6.0,8.0,83,0.00,,FEW060,0.00,VWS V14.01,2013-05-19 02:20:00,
2013-05-18 22:25:00,76.3,70.8,30.08,East,97,4.0,6.0,83,0.00,,FEW060,0.00,VWS V14.01,2013-05-19 02:25:00,
2013-05-18 22:30:00,76.3,71.1,30.08,East,97,4.0,6.0,84,0.00,,FEW060,0.00,VWS V14.01,2013-05-19 02:30:00,
2013-05-18 22:35:00,76.4,71.2,30.08,East,97,2.0,2.0,84,0.00,,FEW060,0.00,VWS V14.01,2013-05-19 02:35:00,
2013-05-18 22:40:00,76.3,71.1,30.08,East,89,6.0,12.0,84,0.00,,FEW060,0.00,VWS V14.01,2013-05-19 02:40:00,
2013-05-18 22:45:00,76.1,70.9,30.08,ESE,106,4.0,6.0,84,0.00,,FEW060,0.00,VWS V14.01,2013-05-19 02:45:00,
2013-05-18 22:51:00,76.0,70.8,30.08,East,85,0.0,6.0,84,0.00,,FEW060,0.00,VWS V14.01,2013-05-19 02:51:00,
2013-05-18 22:56:00,76.1,70.9,30.09,East,91,2.0,2.0,84,0.00,,FEW060,0.00,VWS V14.01,2013-05-19 02:56:00,
2013-05-18 23:01:00,76.0,70.8,30.09,ESE,122,2.0,4.0,84,0.00,,SCT060,0.00,VWS V14.01,2013-05-19 03:01:00,
2013-05-18 23:06:00,75.9,71.1,30.08,ESE,111,2.0,4.0,85,0.00,,SCT060,0.00,VWS V14.01,2013-05-19 03:06:00,
2013-05-18 23:11:00,75.8,71.0,30.08,ESE,110,10.0,10.0,85,0.00,,SCT060,0.00,VWS V14.01,2013-05-19 03:11:00,
2013-05-18 23:16:00,75.8,71.0,30.07,SE,128,4.0,8.0,85,0.00,,SCT060,0.00,VWS V14.01,2013-05-19 03:16:00,
2013-05-18 23:21:00,75.8,71.0,30.08,East,95,2.0,14.0,85,0.00,,SCT060,0.00,VWS V14.01,2013-05-19 03:21:00,
2013-05-18 23:26:00,75.7,70.9,30.08,East,99,6.0,14.0,85,0.00,,SCT060,0.00,VWS V14.01,2013-05-19 03:26:00,
2013-05-18 23:31:00,75.6,71.1,30.08,ENE,78,4.0,4.0,86,0.00,,SCT060,0.00,VWS V14.01,2013-05-19 03:31:00,
2013-05-18 23:36:00,75.5,71.0,30.08,ESE,107,4.0,10.0,86,0.00,,SCT060,0.00,VWS V14.01,2013-05-19 03:36:00,
2013-05-18 23:42:00,75.4,70.9,30.09,East,91,2.0,4.0,86,0.00,,SCT060,0.00,VWS V14.01,2013-05-19 03:42:00,
2013-05-18 23:47:00,75.5,71.0,30.09,East,91,2.0,2.0,86,0.00,,SCT060,0.00,VWS V14.01,2013-05-19 03:47:00,
2013-05-18 23:52:00,75.5,71.0,30.09,ENE,70,0.0,6.0,86,0.00,,SCT060,0.00,VWS V14.01,2013-05-19 03:52:00,
2013-05-18 23:57:00,75.5,71.0,30.09,ESE,104,0.0,6.0,86,0.00,,SCT060,0.00,VWS V14.01,2013-05-19 03:57:00,